Kuchera_Ratio
0.0 0.0 0.0 0.0 0.0 0.0 0.0 0.0 0.0 0.0 0.0 0.0 0.0 0.0 0.0 0.0 0.0 0.0 0.0 0.0 0.0 0.0 0.0 0.0 0.0 0.0 0.0 0.0 0.0 0.0 0.0 0.0 0.0 0.0 0.0 0.0 0.0 0.0 0.0 0.0 0.0 0.0 0.0 0.0
0.0 0.0 0.0 0.0 0.0 0.0 0.0 0.0 0.0 0.0 0.0 0.0 0.0 0.0 0.0 0.0 0.0 0.0 0.0 0.0 0.0 0.0 0.0 0.0 0.0 0.0 0.0 0.0 0.0 0.0 0.0 0.0 0.0 0.0 0.0 0.0 0.0 0.0 0.0 0.0 0.0 0.0 0.0 0.0
0.0 0.0 0.0 0.0 0.0 0.0 0.0 0.0 0.0 0.0 0.0 0.0 0.0 0.0 0.0 0.0 0.0 0.0 0.0 0.0 0.0 0.0 0.0 0.0 0.0 0.0 0.0 0.0 0.0 0.0 0.0 0.0 0.0 0.0 0.0 0.0 0.0 0.0 0.0 0.0 0.0 0.0 0.0 0.0
0.0 0.0 0.0 0.0 0.0 0.0 0.0 0.0 0.0 0.0 0.0 2.8 0.0 5.1 0.0 0.0 0.0 0.0 0.0 0.0 0.0 0.0 0.0 0.0 0.0 0.0 0.0 0.0 0.0 0.0 0.0 0.0 0.0 0.0 0.0 0.0 0.0 0.0 0.0 0.0 0.0 0.0 0.0 0.0
1.5 0.0 0.0 0.3 0.0 0.0 0.0 0.0 0.0 0.0 0.0 4.9 2.9 2.9 0.0 0.0 0.0 0.0 0.0 0.0 0.0 0.0 0.0 0.0 0.0 0.0 0.0 0.0 0.0 0.0 0.0 0.0 0.0 0.0 0.0 0.0 0.0 0.0 0.0 0.0 0.0 0.0 0.0 0.0
0.0 0.0 0.0 0.0 0.0 0.0 0.0 0.0 0.3 2.2 4.3 12.9 3.3 3.1 1.2 0.0 0.0 0.0 0.0 0.0 0.0 0.0 0.0 0.0 0.0 0.0 0.0 0.0 0.0 0.0 0.0 0.0 0.0 0.0 0.0 0.0 0.0 0.0 0.0 0.0 0.0 0.0 0.0 0.0
0.5 0.0 0.0 0.0 0.0 0.0 0.0 1.0 11.2 13.6 13.9 12.8 6.1 6.7 0.0 0.0 0.0 0.0 0.0 0.0 0.0 0.0 0.0 0.0 0.0 0.0 0.0 0.0 0.0 0.0 0.0 0.0 0.0 0.0 0.0 0.0 0.0 0.0 0.0 0.0 0.0 0.0 0.0 0.0
11.4 9.3 0.0 0.0 0.0 2.4 3.6 1.6 8.1 13.5 12.9 12.4 6.0 8.6 0.7 0.0 0.0 0.0 0.0 0.0 0.0 0.0 0.0 0.0 0.0 0.0 0.0 0.0 0.0 0.0 0.0 0.0 0.0 0.0 0.0 0.0 0.0 0.0 0.0 0.0 0.0 0.0 0.0 0.0
9.9 6.9 0.0 0.0 0.0 0.0 5.5 6.3 0.0 9.9 12.2 13.4 9.2 4.4 0.0 0.0 0.0 0.0 0.0 0.0 0.0 0.0 0.0 0.0 0.0 0.0 0.0 0.0 0.0 0.0 0.0 0.0 0.0 0.0 0.0 0.0 0.0 0.0 0.0 0.0 0.0 0.0 0.0 0.0
0.0 12.4 0.0 0.0 0.0 0.0 0.0 0.0 12.3 9.2 15.2 15.0 13.1 10.8 6.7 3.7 0.0 0.0 0.0 0.0 0.0 0.0 0.0 0.0 0.0 0.0 0.0 0.0 0.0 0.0 0.0 0.0 0.0 0.0 0.0 0.0 0.0 0.0 0.0 0.0 0.0 0.0 0.0 0.0
0.0 6.8 7.2 0.0 4.9 5.1 5.3 5.4 5.2 7.0 11.6 14.9 14.3 9.9 0.0 0.0 0.0 0.0 0.0 0.0 0.0 0.0 0.0 0.0 0.0 0.0 0.0 0.0 0.0 0.0 0.0 0.0 0.0 0.0 0.0 0.0 0.0 0.0 0.0 0.0 0.0 0.0 0.0 0.0
0.9 6.9 13.1 5.4 0.0 0.0 0.0 2.1 3.5 12.0 12.7 12.6 13.2 10.1 0.0 0.0 0.0 0.0 0.0 0.0 0.0 0.0 0.0 0.0 0.0 0.0 0.0 0.0 0.0 0.0 0.0 0.0 0.0 0.0 0.0 0.0 0.0 0.0 0.0 0.0 0.0 0.0 0.0 0.0
1.9 8.8 14.1 12.6 7.3 0.0 6.3 0.0 0.0 4.1 6.6 12.1 14.5 10.3 0.0 0.0 0.0 0.0 0.0 0.0 0.0 0.0 0.0 0.0 0.0 0.0 0.0 0.0 0.0 0.0 0.0 0.0 0.0 0.0 0.0 0.0 0.0 0.0 0.0 0.0 0.0 0.0 0.0 0.0
0.0 8.3 10.1 14.4 8.7 6.9 7.2 5.0 0.0 3.9 12.8 12.4 12.1 4.0 0.0 0.0 0.0 0.0 0.0 0.0 0.0 0.0 0.0 0.0 0.0 0.0 0.0 0.0 0.0 0.0 0.0 0.0 0.0 0.0 0.0 0.0 0.0 0.0 0.0 0.0 0.0 0.0 0.0 0.0
3.0 11.9 11.0 7.8 5.3 4.4 5.7 6.4 4.0 7.5 6.9 12.2 5.0 4.4 0.0 0.0 0.0 0.0 0.0 0.0 0.0 0.0 0.0 0.0 0.0 0.0 0.0 0.0 0.0 0.0 0.0 0.0 0.0 0.0 0.0 0.0 0.0 0.0 0.0 0.0 0.0 0.0 0.0 0.0
3.6 11.7 9.9 13.3 8.5 8.0 10.5 6.4 4.3 3.4 2.7 4.6 3.7 4.9 0.0 0.0 0.0 0.0 0.0 0.0 0.0 0.0 0.0 0.0 0.0 0.0 0.0 0.0 0.0 0.0 0.0 0.0 0.0 0.0 0.0 0.0 0.0 0.0 0.0 0.0 0.0 0.0 0.0 0.0
8.8 11.9 13.2 16.6 12.0 12.3 14.7 9.8 6.3 2.7 0.0 0.0 6.6 0.0 0.0 0.0 0.0 0.0 0.0 0.0 0.0 0.0 0.0 0.0 0.0 0.0 0.0 0.0 0.0 0.0 0.0 0.0 0.0 0.0 0.0 0.0 0.0 0.0 0.0 0.0 0.0 0.0 0.0 0.0
10.5 12.9 13.3 16.1 13.4 20.7 10.3 2.2 1.9 3.2 1.1 0.2 0.2 0.3 0.0 0.0 0.0 0.0 0.0 0.0 0.0 0.0 0.0 0.0 0.0 0.0 0.0 0.0 0.0 0.0 0.0 0.0 0.0 0.0 0.0 0.0 0.0 0.0 0.0 0.0 0.2 0.0 0.0 0.0
6.8 10.7 14.7 17.6 17.1 13.4 9.6 2.9 2.5 8.9 8.7 3.0 2.2 1.4 0.2 0.0 0.0 1.0 0.0 0.0 0.0 0.0 0.0 0.0 0.0 0.0 0.0 0.0 0.0 0.0 0.0 0.4 0.6 1.1 0.8 0.0 0.0 0.3 0.3 1.1 1.3 0.5 0.0 0.0
10.6 9.6 12.7 15.2 18.0 19.5 12.6 5.2 0.0 0.0 12.7 1.2 0.7 1.5 1.0 0.5 8.3 8.1 0.0 0.0 0.0 0.0 0.0 0.0 0.0 0.0 0.0 0.0 0.0 0.0 1.2 1.8 2.4 1.6 1.2 0.1 0.0 0.3 1.5 1.3 1.5 0.7 0.5 1.3
15.8 14.5 15.1 15.3 15.9 14.7 8.8 4.2 0.0 15.9 13.9 1.1 0.4 0.1 0.0 6.2 2.0 0.0 0.0 0.0 0.0 0.0 0.0 0.0 0.0 0.0 0.0 0.0 0.0 1.2 2.0 3.0 1.8 0.8 0.5 0.4 0.2 0.9 0.9 1.0 0.6 1.2 1.8 2.2
16.0 16.9 17.1 15.6 17.2 19.0 4.2 3.1 12.7 9.9 2.1 1.4 0.7 1.0 1.4 1.1 0.0 0.0 0.0 0.0 0.0 0.0 0.0 0.0 0.0 0.0 0.0 0.0 0.0 1.4 3.2 1.8 1.4 1.1 1.2 1.2 0.7 0.0 0.1 1.1 1.5 2.6 3.2 3.9
16.3 13.9 16.2 15.5 15.1 8.4 7.4 7.9 5.3 4.3 3.9 1.9 1.8 0.0 0.0 2.0 0.2 0.0 0.0 0.0 0.0 0.0 0.0 0.0 0.0 0.0 0.0 0.0 0.0 1.1 1.8 1.5 1.8 2.0 2.1 1.7 0.9 0.9 0.4 1.3 1.7 2.7 1.8 3.2
14.0 12.1 14.9 13.9 13.3 10.2 5.6 1.8 0.3 0.2 3.1 0.0 0.0 0.0 0.0 4.2 0.0 0.0 0.0 0.0 0.0 0.0 0.0 0.0 0.0 0.0 0.1 0.0 0.0 0.0 0.7 1.1 2.1 2.9 2.7 1.9 2.2 1.9 0.8 0.0 0.3 2.0 3.5 6.7
14.8 12.9 15.3 15.3 12.2 11.0 9.3 8.3 3.1 2.0 0.4 2.0 0.0 0.0 0.0 0.0 0.0 0.0 0.0 0.0 0.0 0.0 0.0 0.0 0.0 0.0 0.0 0.0 0.3 0.1 0.1 0.9 2.6 2.5 2.2 1.7 1.3 1.6 1.8 1.9 1.8 3.4 3.9 4.5
12.8 14.5 16.7 17.0 11.5 12.1 10.8 4.6 3.4 4.8 4.1 2.6 3.0 3.2 1.1 0.0 0.7 0.0 0.1 0.0 0.0 0.0 0.0 0.0 0.0 0.0 0.0 0.0 1.0 0.9 0.2 0.5 1.8 2.9 2.1 2.5 2.4 3.5 5.7 5.3 4.8 0.0 0.0 0.0